KQA651 HKKI-HKJK

Flight info

Callsign KQA651
Flight time N/A
Altitude 23000
Route IBSUL1B IBSUL DCT NAKAT NAKAT4A
Aircraft B738/M-SDE2E3FGHIRWXY/LB1

Departure

Time 2026-04-22 15:01
Airport Kisumu International Airport (HKKI)

Arrival

Time N/A
Airport Jomo Kenyatta International Airport (HKJK)
Time Latitude Longitude Altitude Speed Heading
2026-04-22 14:45 -0.08299 34.72912 3784 ft 0 kts 65°
2026-04-22 14:48 -0.08299 34.72911 3784 ft 0 kts 65°
2026-04-22 14:56 -0.08299 34.72912 3776 ft 1 kts 65°
2026-04-22 14:56 -0.08292 34.72926 3778 ft 4 kts 65°
2026-04-22 14:57 -0.08285 34.72964 3780 ft 7 kts 110°
2026-04-22 14:57 -0.08330 34.72998 3776 ft 9 kts 149°
2026-04-22 14:57 -0.08385 34.73032 3777 ft 9 kts 151°
2026-04-22 14:57 -0.08442 34.73063 3783 ft 9 kts 152°
2026-04-22 14:58 -0.08468 34.73116 3779 ft 9 kts 81°
2026-04-22 14:58 -0.08436 34.73179 3781 ft 11 kts 59°
2026-04-22 14:58 -0.08396 34.73253 3781 ft 13 kts 62°
2026-04-22 14:58 -0.08351 34.73337 3781 ft 14 kts 61°
2026-04-22 14:59 -0.08306 34.73419 3786 ft 14 kts 62°
2026-04-22 14:59 -0.08256 34.73513 3781 ft 16 kts 62°
2026-04-22 14:59 -0.08208 34.73583 3779 ft 11 kts 36°
2026-04-22 14:59 -0.08140 34.73623 3784 ft 12 kts 35°
2026-04-22 15:00 -0.08163 34.73660 3782 ft 8 kts 200°
2026-04-22 15:00 -0.08205 34.73606 3775 ft 18 kts 242°
2026-04-22 15:00 -0.08378 34.73287 3783 ft 86 kts 241°
2026-04-22 15:00 -0.08760 34.72579 3774 ft 144 kts 242°
2026-04-22 15:01 -0.09312 34.71592 4041 ft 171 kts 240°
2026-04-22 15:01 -0.09914 34.70568 4718 ft 178 kts 231°
2026-04-22 15:01 -0.11010 34.69900 5083 ft 204 kts 191°
2026-04-22 15:01 -0.12505 34.70154 5229 ft 237 kts 153°
2026-04-22 15:02 -0.13925 34.71093 5450 ft 254 kts 148°
2026-04-22 15:02 -0.15430 34.72101 5710 ft 268 kts 149°
2026-04-22 15:02 -0.17053 34.73152 6059 ft 285 kts 149°
2026-04-22 15:02 -0.18730 34.74200 6899 ft 281 kts 149°
2026-04-22 15:03 -0.20392 34.75228 7653 ft 282 kts 148°
2026-04-22 15:03 -0.22071 34.76255 8367 ft 285 kts 148°
2026-04-22 15:03 -0.23772 34.77286 9081 ft 287 kts 148°
2026-04-22 15:03 -0.25462 34.78311 9844 ft 288 kts 148°
2026-04-22 15:04 -0.27199 34.79366 10307 ft 301 kts 147°
2026-04-22 15:04 -0.29062 34.80500 10445 ft 323 kts 147°
2026-04-22 15:04 -0.31019 34.81692 10828 ft 333 kts 147°
2026-04-22 15:04 -0.33015 34.82908 11410 ft 338 kts 147°
2026-04-22 15:05 -0.35030 34.84135 12062 ft 341 kts 147°
2026-04-22 15:05 -0.37057 34.85371 12729 ft 343 kts 147°
2026-04-22 15:05 -0.39107 34.86621 13407 ft 346 kts 147°
2026-04-22 15:05 -0.41178 34.87885 14003 ft 350 kts 147°
2026-04-22 15:06 -0.43230 34.89165 14601 ft 353 kts 142°
2026-04-22 15:06 -0.44972 34.90876 15203 ft 353 kts 128°
2026-04-22 15:06 -0.46547 34.92775 15813 ft 357 kts 128°
2026-04-22 15:06 -0.48139 34.94701 16404 ft 361 kts 128°
2026-04-22 15:07 -0.49750 34.96640 16991 ft 364 kts 128°
2026-04-22 15:07 -0.51302 34.98633 17771 ft 359 kts 121°
2026-04-22 15:07 -0.52398 35.00832 18742 ft 349 kts 110°
2026-04-22 15:07 -0.53214 35.03119 19351 ft 351 kts 108°
2026-04-22 15:08 -0.54016 35.05444 19853 ft 356 kts 108°
2026-04-22 15:08 -0.54824 35.07800 20376 ft 359 kts 108°
2026-04-22 15:08 -0.55642 35.10171 20886 ft 363 kts 108°
2026-04-22 15:08 -0.56473 35.12565 21413 ft 366 kts 108°
2026-04-22 15:09 -0.57316 35.14980 21929 ft 369 kts 108°
2026-04-22 15:09 -0.58173 35.17422 22351 ft 375 kts 108°
2026-04-22 15:09 -0.59046 35.19906 22733 ft 381 kts 108°
2026-04-22 15:09 -0.59922 35.22398 22923 ft 390 kts 109°
2026-04-22 15:10 -0.60830 35.24973 22929 ft 391 kts 108°
2026-04-22 15:10 -0.61728 35.27519 22923 ft 386 kts 108°
2026-04-22 15:10 -0.62615 35.30035 22931 ft 383 kts 109°
2026-04-22 15:10 -0.63503 35.32553 22939 ft 384 kts 108°
2026-04-22 15:11 -0.64389 35.35069 22949 ft 385 kts 108°
2026-04-22 15:11 -0.65278 35.37595 22955 ft 385 kts 108°
2026-04-22 15:11 -0.66168 35.40121 22951 ft 386 kts 109°
2026-04-22 15:11 -0.67061 35.42656 22951 ft 386 kts 109°
2026-04-22 15:12 -0.67953 35.45188 22967 ft 387 kts 109°